Location: Beadle
(51.4667°N, 109.0000°W)
Time: 03:47:19
(UTC+00:00)

Altair - Pass Details

Date: 28 May 2022
Orbit: 1501 x 1682 km, 47.2° (Epoch: 30 June)

Event Time Altitude Azimuth Distance (km) Brightness Sun altitude
Rises 02:20:50 0° 267° (W) 4,889 11.3 6.7°
Reaches altitude 10° 02:23:58 10° 265° (W) 3,918 10.8 6.3°
Maximum altitude 02:33:59 70° 185° (S) 1,769 7.9 4.9°
Drops below altitude 10° 02:44:03 10° 105° (ESE) 3,933 9.1 3.6°
Sets 02:47:12 0° 103° (ESE) 4,910 9.5 3.1°
